{"data":{"norad_id":57409,"intl_designator":"2023-102F","name":"STARLINK-30222","alt_names":[],"object_type":"PAYLOAD","status":"ACTIVE","operator":null,"country":"US","launch_date":"2023-07-20","launch_site_code":"AFWTR","launch_vehicle":null,"mission":null,"orbit_class":"UNKNOWN","rcs_meters":null,"size_class":null,"mass_kg":null,"dimensions":null,"purposes":["comms"],"wikipedia_slug":null,"has_3d_model":false,"image_url":null,"decayed_at":null,"tle_current":{"epoch":"2026-05-25T01:52:25.084704Z","epoch_age_seconds":71412,"freshness":"FRESH","line1":"1 57409U 23102F   26145.07806811  .00001199  00000+0  53107-4 0  9991","line2":"2 57409  43.0041 177.0885 0001738 280.8297  79.2359 15.27573404157927","mean_motion":15.27573404,"eccentricity":0.0001738,"inclination_deg":43.0041,"raan_deg":177.0885,"arg_perigee_deg":280.8297,"mean_anomaly_deg":79.2359,"bstar":5.3107e-5,"rev_number":15792,"period_min":94.267155753649,"perigee_km":481.87636933143,"apogee_km":484.26132448381,"semimajor_km":6861.2058469076,"source":"CELESTRAK","updated_at":"2026-05-25T13:38:18.298353Z"}}}